This demonstration page uses our WeatherBlox Daily Observations layout. Learn more.

39.08367, -84.50855

Hourly Observations for January 7, 2020

Temp ( °F °C ) Dew Point ( °F °C ) Humidity (%) Winds ( mph kmh ) Pressure ( in mb ) Visibility ( mi km ) Precip ( " mm )
12:53 am 00:53 Clear 29 -1.7 26 -3.3 89 89 Calm 30.1 1019 10 16.0934 0 0
1:53 am 01:53 Mostly Clear 29 -1.7 25 -3.9 85 85 N 3 6 30.06 1018 10 16.0934 0 0
2:53 am 02:53 Mostly Cloudy 30 -1.1 25 -3.9 82 82 Calm 30.04 1017 10 16.0934 0 0
3:53 am 03:53 Partly Cloudy 30 -1.1 26 -3.3 85 85 Calm 30.02 1017 10 16.0934 0 0
4:53 am 04:53 Cloudy 30 -1.1 26 -3.3 85 85 Calm 30.01 1016 10 16.0934 0 0
5:53 am 05:53 Clear 30 -1.1 26 -3.3 85 85 Calm 30.03 1017 10 16.0934 0 0
6:53 am 06:53 Mostly Cloudy 30 -1.1 27 -2.8 88 88 NNW 3 6 30.01 1016 10 16.0934 0 0
7:53 am 07:53 Partly Cloudy 30 -1.1 26 -3.3 85 85 Calm 30.02 1017 10 16.0934 0 0
8:53 am 08:53 Partly Cloudy 29 -1.7 26 -3.3 89 89 S 3 6 30.02 1017 10 16.0934 0 0
9:53 am 09:53 Sunny 33 0.6 29 -1.7 85 85 Calm 30.04 1017 10 16.0934 0 0
10:53 am 10:53 Sunny 40 4.4 29 -1.7 65 65 Calm 30.05 1018 10 16.0934 0 0
11:53 am 11:53 Sunny 45 7.2 27 -2.8 49 49 W 7 11 30.04 1017 10 16.0934 0 0
12:53 pm 12:53 Sunny 48 8.9 27 -2.8 44 44 WSW 12 19 30.01 1016 10 16.0934 0 0
1:53 pm 13:53 Sunny 48 8.9 21 -6.1 34 34 WSW 9 15 30 1016 10 16.0934 0 0
2:53 pm 14:53 Sunny 50 10 17 -8.3 27 27 W 13 20 30 1016 10 16.0934 0 0
3:53 pm 15:53 Mostly Cloudy 48 8.9 17 -8.3 29 29 W 20 31 30.03 1017 10 16.0934 0 0
4:53 pm 16:53 Partly Cloudy 47 8.3 20 -6.7 34 34 W 13 20 30.06 1018 10 16.0934 0 0
5:53 pm 17:53 Clear 44 6.7 19 -7.2 37 37 W 10 17 30.08 1019 10 16.0934 0 0
6:53 pm 18:53 Clear 43 6.1 22 -5.6 43 43 W 13 20 30.11 1020 10 16.0934 0 0
7:53 pm 19:53 Clear 39 3.9 23 -5 53 53 WSW 9 15 30.12 1020 10 16.0934 0 0
8:53 pm 20:53 Clear 37 2.8 24 -4.4 59 59 SSW 7 11 30.13 1020 10 16.0934 0 0
9:53 pm 21:53 Mostly Clear 40 4.4 26 -3.3 58 58 SSW 10 17 30.12 1020 10 16.0934 0 0
10:53 pm 22:53 Cloudy 41 5 27 -2.8 57 57 WSW 12 19 30.13 1020 10 16.0934 0 0
11:53 pm 23:53 Cloudy 41 5 28 -2.2 60 60 SW 13 20 30.11 1020 10 16.0934 0 0

Powered by AerisWeather